TIANMU-1 03

Last updated on Fri Sep 11 2026 00:02:39 GMT+0000 (Coordinated Universal Time)

1 55973U 23039A 26253.54869922 .00012528 00000+0 22921-3 0 9995 2 55973 97.5257 71.0317 0003507 126.8631 233.2942 15.49497393194044
UTC large
Height (km)
Speed (km/s)
/
Latitude / Longitude
Inclination (degrees)
Orbital Period (minutes)
Azimuth
Elevation
Range (km)
Doppler Factor

Next 0 passes for location: London (51.5072 / 0.1276)

No passes found over London.
TIANMU-1 03